Home > Weather > Eupen > Past weeks

Flag for Belgium Past Weather in Eupen, Belgium — Yesterday and Last 2 Weeks

Now
45 °F

Partly sunny.


Feels Like: 43 °F
Forecast: 37 / 63 °F
Wind: 3 mph from Northwest

Location: Spa / La Sauveniere

Current Time: May 24, 2016 at 12:01:39 PM

Latest Report: May 24, 2016 at 11:00 AM


Visibility: N/A

Pressure: 30.08 "Hg

Humidity: 91%

Dew Point: 42 °F

Location of EupenLocation

Past Weather in Eupen — Graph

°F

Eupen Temperature Yesterday

Maximum temperature yesterday: 53 °F (at 1:00 AM)
Minimum temperature yesterday: 46 °F (at 9:00 AM)
Average temperature yesterday: 48 °F

High & Low Weather Summary for the Past Weeks

 TemperatureHumidityPressure
High72 °F (May 9, 5:00 PM)96% (May 23, 9:00 PM)30.19 "Hg (May 23, 9:00 PM)
Low37 °F (May 15, 5:00 AM)39% (May 11, 3:00 PM)29.47 "Hg (May 12, 5:00 PM)
Average54 °F74%29.88 "Hg
* Reported May 9 10:00 AM — May 24 10:00 AM, Eupen, Weather by CustomWeather, © 2016

Note: Actual official high and low records may vary slightly from our data, if they occured in-between our weather recording intervals... More about our weather records

Advertising

Eupen Weather History for the Previous 24 Hours

Scroll right to see more
 ConditionsComfort  
Time TempWeatherWind HumidityBarometerVisibility
10:00 AM
Tue, May 24
44 °FLow clouds.3 mph93%30.08 "HgN/A
9:00 AM44 °FPartly sunny.3 mph93%30.09 "Hg3 mi
8:00 AM44 °FLow clouds.5 mph96%30.08 "Hg0 mi
7:00 AM44 °FLow clouds.5 mph94%30.08 "HgN/A
6:00 AM45 °FLow clouds.6 mph95%30.07 "Hg1 mi
5:00 AM46 °FDrizzle. Low clouds.5 mph96%30.06 "Hg0 mi
4:00 AM46 °FPassing clouds.6 mph95%30.06 "Hg0 mi
3:00 AM46 °FLight rain. Low clouds.6 mph95%30.07 "Hg0 mi
2:00 AM46 °FPassing clouds.7 mph96%30.06 "Hg0 mi
1:00 AM46 °FPassing clouds.6 mph94%30.06 "Hg1 mi
12:00 AM46 °FRain. Passing clouds.5 mph95%30.06 "Hg1 mi
11:00 PM
Mon, May 23
46 °FLight rain. Passing clouds.6 mph95%30.06 "Hg2 mi
10:00 PM46 °FLight rain. Low clouds.6 mph96%30.04 "Hg1 mi
9:00 PM46 °FLight rain. Low clouds.5 mph96%30.03 "Hg1 mi
8:00 PM46 °FDrizzle. Partly sunny.6 mph95%30.03 "Hg2 mi
7:00 PM47 °FDrizzle. Low clouds.5 mph95%30.01 "Hg1 mi
6:00 PM47 °FDrizzle. Low clouds.5 mph93%30.00 "Hg2 mi
5:00 PM47 °FDrizzle. Low clouds.5 mph93%30.00 "Hg3 mi
4:00 PM47 °FDrizzle. Partly sunny.6 mph94%29.98 "Hg3 mi
3:00 PM47 °FLight rain. Partly sunny.6 mph94%29.97 "Hg2 mi
2:00 PM46 °FLight rain. Partly sunny.5 mph94%29.96 "Hg2 mi
1:00 PM46 °FDrizzle. Partly sunny.6 mph95%29.94 "Hg1 mi
12:00 PM46 °FDrizzle. Partly sunny.6 mph94%29.93 "Hg3 mi
Weather by CustomWeather, © 2016

See weather overviewHow to use our weather pages